Flag for Romania Weather past 2 weeks in Oradea, Romania

Now
84 °F

Sunny.


Feels Like: 83 °F
Forecast: 65 / 95 °F
Wind: 3 mph from North

Location: Oradea Airport

Current Time: Jul 5, 2015 at 11:35:41 AM

Latest Report: Jul 5, 2015 at 11:00 AM


Visibility: 10 mi

Pressure: 30.09 "Hg

Humidity: 40%

Dew point: 57 °F

Location of OradeaLocation

Historic Weather in Oradea — Graph

°F

Oradea temperature yesterday

Maximum temperature yesterday: 88 °F (at 2:00 PM)
Minimum temperature yesterday: 59 °F (at 5:30 AM)
Average temperature yesterday: 77 °F

Past Weeks' High & Low Weather Summary

 TemperatureHumidityPressure
High88 °F (Jul 4, 2:00 PM)94% (Jun 21, 3:00 AM)30.30 "Hg (Jun 21, 3:00 AM)
Low48 °F (Jun 22, 5:00 AM)26% (Jul 2, 4:00 PM)29.89 "Hg (Jun 20, 3:30 PM)
Average67 °F62%30.07 "Hg
* Reported Jun 20 10:00 AM — Jul 5 10:30 AM, Oradea, Weather by CustomWeather, © 2015

Note: Actual official high and low records may vary slightly from our data, if they occured in-between our weather recording intervals... More about our weather records

Advertising

Oradea weather history for previous 24 hours

 ConditionsComfort  
Time TempWeatherWind HumidityBarometerVisibility
10:30 AM
Sun, Jul 5
82 °FPassing clouds.5 mph42%30.09 "HgN/A
10:00 AM81 °FSunny.3 mph45%30.09 "Hg10 mi
9:30 AM77 °FPassing clouds.5 mph54%30.09 "HgN/A
9:00 AM73 °FPassing clouds.6 mph61%30.09 "HgN/A
8:30 AM72 °FSunny.5 mph61%30.09 "Hg10 mi
8:00 AM68 °FSunny.6 mph69%30.12 "Hg10 mi
7:30 AM66 °FSunny.7 mph73%30.12 "Hg10 mi
6:30 AM63 °FMild.7 mph83%30.12 "HgN/A
6:00 AM63 °FMild.8 mph77%30.12 "HgN/A
5:30 AM63 °FMild.7 mph83%30.12 "HgN/A
5:00 AM61 °FPassing clouds.7 mph88%30.12 "HgN/A
4:00 AM61 °FCool.7 mph88%30.12 "HgN/A
3:00 AM64 °FMild.6 mph83%30.12 "HgN/A
2:00 AM64 °FMild.5 mph83%30.12 "HgN/A
1:00 AM68 °FMild.5 mph73%30.12 "HgN/A
12:00 AM68 °FMild.7 mph73%30.12 "HgN/A
11:30 PM
Sat, Jul 4
70 °FMild.6 mph69%30.12 "HgN/A
11:00 PM72 °FMild.6 mph65%30.12 "HgN/A
10:30 PM73 °FMild.3 mph61%30.15 "HgN/A
10:00 PM75 °FMild.2 mph54%30.12 "HgN/A
9:30 PM79 °FWarm.5 mph45%30.12 "HgN/A
9:00 PM82 °FSunny.6 mph37%30.15 "Hg10 mi
8:30 PM82 °FPassing clouds.5 mph37%30.15 "HgN/A
8:00 PM84 °FPassing clouds.7 mph35%30.15 "HgN/A
7:30 PM84 °FPassing clouds.6 mph35%30.15 "HgN/A
7:00 PM86 °FPassing clouds.6 mph29%30.15 "HgN/A
6:30 PM88 °FPassing clouds.10 mph27%30.15 "HgN/A
6:00 PM88 °FSunny.12 mph29%30.15 "Hg10 mi
5:30 PM88 °FSunny.10 mph29%30.15 "Hg10 mi
5:00 PM88 °FPassing clouds.10 mph29%30.15 "HgN/A
4:30 PM88 °FPassing clouds.12 mph29%30.18 "HgN/A
4:00 PM88 °FPassing clouds.12 mph29%30.18 "HgN/A
3:30 PM86 °FPassing clouds.7 mph31%30.18 "HgN/A
3:00 PM86 °FPassing clouds.9 mph31%30.18 "HgN/A
2:30 PM86 °FPassing clouds.6 mph27%30.21 "HgN/A
2:00 PM88 °FSunny.10 mph29%30.21 "Hg10 mi
1:30 PM86 °FSunny.5 mph29%30.21 "Hg10 mi
1:00 PM84 °FPassing clouds.7 mph31%30.21 "HgN/A
12:30 PM84 °FSunny.8 mph35%30.24 "Hg10 mi
12:00 PM84 °FPassing clouds.6 mph37%30.24 "HgN/A
11:30 AM82 °FSunny.6 mph37%30.24 "Hg10 mi
11:00 AM82 °FPassing clouds.6 mph37%30.24 "HgN/A
Weather by CustomWeather, © 2015

See weather overviewHow to use our weather pages